Lid_Strength_Index
-1 0 1 1 1 1 1 1 -0 0 -0 -0 -0 -1 -1 0 0 1 1 1 1 1
-0 0 1 -0 0 0 0 0 -0 -0 0 -0 -0 0 0 1 1 0 1 1 1 1
0 0 0 -0 1 1 0 0 0 0 0 0 0 0 0 1 1 1 1 0 1 1
0 0 -0 -0 0 0 0 0 0 0 0 0 0 0 1 1 1 1 1 1 1 1
1 0 0 0 0 -0 0 -0 0 0 0 1 0 0 1 1 1 1 1 1 1 1
1 1 0 1 0 0 0 0 0 0 1 1 1 1 0 1 2 2 2 1 1 1
1 1 0 0 0 0 0 0 0 0 0 0 0 0 0 1 1 2 2 2 2 2
1 0 0 0 0 0 0 0 -0 0 0 0 0 2 0 0 1 1 1 2 3 3
1 1 1 1 1 0 1 0 0 0 1 1 1 4 4 1 1 1 1 1 1 1
1 1 1 1 1 1 1 0 0 1 0 1 1 4 4 2 0 1 1 1 1 1
1 1 1 1 1 1 1 1 1 1 0 1 4 5 5 4 0 0 1 2 1 1
1 2 2 2 1 1 1 1 1 0 1 1 3 6 6 4 0 1 2 4 5 3
1 1 2 2 1 1 1 1 1 1 1 3 3 8 8 6 1 2 3 4 4 6
3 1 2 2 2 2 1 2 2 2 2 3 6 6 9 8 2 1 2 4 5 6